Find Starlink 4711

NORAD ID: 53701 Int'l Des: 2022-107 Owner: SPXS Country: US Constellation: starlink operational
LEOCIRCULAR

当前视图

正在加载3D地球...

About Starlink 4711

Starlink 4711 (NORAD 53701) is a starlink constellation satellite (v1.5) launched Sep 5, 2022 by SPXS of US. It operates in LEO, CIRCULAR orbit with a mass of 305.00 kg.

关于 Starlink 4711

正在加载描述...

即将过境

Passes for default location (London). Set your location on the main map for personalized predictions.

高度历史

Loading altitude history...

两行轨道根数

1 53701U 22107B 26170.92446474 .00001102 00000-0 87371-4 0 9998
2 53701 53.1604 144.6494 0001242 89.6528 270.4606 15.08827007210293
Epoch: Jun 19, 2026 • Age: 10 hours

当前状态

高度 544.9 km
速度 7.59 km/s
星下点 -17.63°S, 61.44°W
发射日期 Sep 5, 2022
运行时间 3.7 years
类型 internet

技术详情

分类 Payload
质量 305.00 kg
干质量 290.00 kg
总质量 305.00 kg
长度 0.20 m
直径 2.80 m
跨度 9.00 m
形状 Box + pan
制造商 SPXS
平台类型 Starlink
阶段状态 In Orbit
所有者/国家 SPXS/US

Most Searched